Theta_e
332 332 331 331 331 331 331 331 332 330 329 329 330 330 330 331 328 331 333 344 342 343 343 342 341 341 343 348 349 349 348 347 345 344 341 342 342 341 342 341 340 340 341
332 333 333 332 330 331 329 328 327 326 326 328 329 329 328 327 328 330 329 334 341 341 343 342 342 341 340 347 348 349 347 347 346 342 342 342 341 341 341 341 341 341 341
333 333 331 330 331 331 330 329 328 328 326 326 326 328 327 328 329 329 331 331 334 342 343 342 342 342 341 344 348 348 347 346 346 343 342 342 341 341 342 342 341 341 341
334 333 332 329 330 330 329 327 326 326 326 325 323 323 324 325 327 327 328 329 331 333 338 343 342 344 343 344 348 347 347 346 345 343 342 341 341 342 342 341 341 340 338
337 333 330 329 330 329 328 327 326 325 323 322 324 324 325 325 326 330 329 328 327 330 329 337 339 342 343 347 346 348 346 346 344 343 342 342 341 341 340 340 340 338 337
337 332 331 330 330 328 327 326 325 324 323 322 325 325 323 325 326 326 327 329 328 329 328 329 332 335 342 347 345 347 347 347 344 342 341 340 340 341 339 340 338 337 336
334 331 329 329 329 327 326 326 324 323 321 322 319 319 320 324 324 325 326 325 326 327 324 331 331 331 335 345 344 346 346 347 344 342 340 338 340 339 339 337 338 336 335
332 330 329 330 329 326 326 325 323 320 321 322 317 315 311 315 320 323 322 324 325 328 328 333 331 333 334 338 339 345 347 346 344 342 340 339 339 339 338 338 336 333 328
333 330 331 329 327 326 324 325 324 322 318 320 320 315 309 307 312 318 320 322 323 323 325 333 332 332 334 337 340 343 344 344 344 343 340 339 339 337 338 336 334 327 326
331 332 329 328 326 327 324 325 327 322 320 316 319 323 319 316 309 309 317 319 321 323 323 328 327 329 335 337 340 341 338 341 343 342 339 339 338 335 335 334 328 326 327
329 331 329 327 327 326 325 324 323 322 322 318 318 318 319 319 316 311 309 314 318 324 324 325 324 325 331 334 338 338 336 337 337 338 338 339 337 336 332 329 326 326 330
328 331 330 327 326 325 324 324 323 323 323 323 322 321 318 315 315 316 309 310 313 318 323 325 321 322 327 335 341 338 334 333 331 332 334 334 334 333 329 327 327 330 330
325 327 326 326 326 325 325 325 324 323 324 322 322 322 321 319 319 317 313 312 314 317 321 327 330 328 326 327 336 336 334 329 328 327 328 329 330 328 327 327 330 330 330
326 327 326 327 327 328 326 324 325 325 324 323 323 322 321 322 320 318 314 314 311 314 317 324 330 326 328 327 334 333 330 327 325 322 322 322 323 323 325 330 330 330 330
330 328 328 327 327 326 325 323 324 323 324 324 325 325 321 323 325 322 317 319 314 311 317 322 323 330 328 328 331 329 328 325 324 321 321 320 322 324 325 326 326 326 327
329 328 328 327 326 325 326 326 324 325 322 323 322 322 320 319 321 326 321 320 319 315 316 323 326 327 328 328 331 327 326 324 321 319 320 320 320 321 322 322 322 323 324
329 328 328 326 325 326 326 324 323 325 324 324 324 323 321 319 320 323 324 321 320 320 318 321 325 326 325 325 325 324 325 322 321 320 321 319 318 319 319 319 320 320 320
328 328 328 329 328 328 326 324 324 326 325 324 322 323 322 326 323 322 322 320 319 319 321 317 321 322 322 323 323 321 322 323 321 321 319 318 317 316 317 316 316 315 314
327 328 327 326 326 326 327 325 327 325 325 322 322 321 323 324 323 324 323 321 321 320 321 320 319 321 321 322 321 321 321 321 321 320 316 315 315 315 313 312 311 310 309
326 329 329 328 327 327 327 328 326 324 324 324 324 326 324 323 324 324 324 322 321 320 320 320 318 318 320 321 320 317 316 317 316 317 314 313 312 312 311 309 310 309 306
326 326 329 326 327 326 327 325 325 325 324 325 325 325 323 322 323 325 326 323 322 320 319 318 317 316 316 316 315 316 313 313 313 312 310 309 308 306 306 308 310 307 303
326 325 324 325 323 322 308 314 321 323 324 324 325 322 320 319 319 317 317 317 320 320 318 317 315 314 314 314 315 314 313 311 308 314 311 307 306 304 304 302 304 302 301
323 323 325 320 318 314 302 309 316 326 325 324 324 324 325 323 319 317 310 311 311 310 315 319 316 315 314 316 314 313 312 311 310 313 311 306 304 300 299 301 301 300 299
322 324 323 320 316 313 302 302 314 326 326 326 323 322 322 321 319 321 321 321 320 321 321 321 320 318 318 318 317 316 314 313 314 315 312 303 302 298 297 297 299 299 298
321 322 322 318 316 317 303 304 319 325 323 320 320 322 322 320 305 307 321 320 319 317 308 306 306 305 303 305 313 316 313 311 309 312 314 306 303 298 296 294 295 298 297
322 324 322 318 315 319 303 304 316 320 318 319 319 316 306 314 302 305 321 320 318 317 317 316 314 309 310 309 307 317 318 312 311 311 312 307 302 301 296 296 293 293 293
Wind_Speed
5 3 4 4 5 5 5 5 4 5 5 6 6 5 7 6 5 3 2 11 18 14 14 13 13 13 11 10 13 17 19 21 20 19 19 18 18 19 17 15 13 11 12
5 4 3 4 4 4 4 4 3 4 4 4 4 5 5 4 5 6 2 3 10 12 12 13 14 14 14 12 14 18 20 21 21 21 18 17 19 17 17 16 15 16 16
6 5 3 2 4 3 3 1 2 2 2 3 5 4 1 4 3 4 2 3 5 13 13 14 15 15 15 14 17 20 21 22 22 20 20 19 18 17 16 16 16 15 15
7 5 3 3 3 3 3 2 3 4 4 4 3 4 3 3 4 4 4 4 4 4 11 16 15 15 15 15 18 21 22 22 22 21 20 20 18 16 17 17 17 18 18
8 6 4 3 4 3 3 3 4 3 3 4 4 4 4 3 4 3 5 6 6 5 4 11 16 16 15 15 18 22 23 21 22 21 20 20 19 17 16 18 20 19 17
7 6 5 5 4 3 3 3 5 4 3 4 4 4 4 4 4 4 4 4 5 6 5 6 6 8 15 14 18 21 24 24 24 23 21 19 18 16 17 19 20 18 16
6 6 4 4 4 4 5 5 3 5 3 3 2 2 3 4 5 4 3 3 4 6 6 5 5 4 6 14 15 20 24 27 27 25 21 19 16 17 20 20 19 18 17
7 6 5 5 5 3 5 5 4 2 3 4 3 2 1 3 2 4 3 4 6 3 3 5 6 7 5 5 8 19 24 28 28 26 22 18 18 21 22 22 20 19 15
6 6 6 5 5 4 4 5 5 6 4 3 4 4 1 4 1 1 3 4 3 1 3 4 7 7 8 8 10 18 24 26 29 28 24 21 23 23 23 23 21 18 15
6 5 6 6 5 4 4 4 4 4 4 4 1 4 3 3 2 1 2 3 4 4 4 2 3 5 7 7 14 19 23 26 27 27 25 25 26 25 24 23 20 17 15
5 5 6 5 5 4 4 5 4 5 4 4 3 3 3 2 3 3 3 3 2 3 3 4 4 3 5 8 10 15 23 21 19 23 24 26 26 26 25 23 19 15 15
3 5 4 5 4 3 4 4 4 6 5 4 3 3 3 3 3 1 2 2 4 1 1 3 4 3 3 5 12 18 21 19 18 21 25 25 25 24 24 21 17 16 15
2 4 4 4 3 3 4 3 5 4 4 3 4 3 3 3 3 3 3 2 3 1 2 3 3 4 3 4 7 19 20 21 21 20 21 24 24 24 22 18 15 15 15
2 3 4 5 4 4 3 5 3 2 3 2 4 2 2 1 1 2 3 5 2 2 2 3 4 3 4 5 10 13 15 26 24 24 24 24 23 22 18 13 12 11 11
2 4 5 5 4 4 6 5 2 2 3 3 4 3 2 2 1 2 2 2 5 4 3 1 2 4 4 5 10 10 13 25 27 27 26 23 19 15 12 11 10 8 10
3 5 5 5 5 3 6 4 2 2 5 3 3 3 2 1 3 1 2 2 3 4 4 2 3 5 6 6 13 19 17 25 26 25 24 19 15 13 12 11 11 10 10
6 5 5 5 5 6 6 4 3 3 6 4 2 2 1 1 2 3 3 3 4 6 8 3 3 5 9 12 12 15 17 15 15 26 22 14 14 14 12 11 11 10 10
4 6 5 5 4 6 6 5 3 5 5 4 4 2 0 3 5 4 4 5 6 6 11 12 5 4 8 13 15 15 12 11 13 19 19 15 11 12 11 11 12 11 12
4 5 3 5 5 5 6 4 5 4 5 5 4 4 4 5 6 4 4 6 7 7 7 8 7 5 7 10 13 13 12 11 7 21 14 13 12 12 11 12 11 11 11
5 5 5 5 5 5 6 5 4 4 5 4 3 3 5 5 7 5 5 6 7 8 9 8 9 10 8 12 12 14 11 9 11 7 12 11 11 12 12 12 12 12 11
5 5 4 5 6 6 4 6 6 6 6 7 6 7 5 5 8 7 6 7 8 7 8 9 8 9 9 11 13 10 12 11 7 4 5 3 4 5 5 7 10 12 12
6 6 7 7 7 5 5 9 7 6 6 6 6 5 5 5 4 9 11 8 8 11 10 8 10 12 9 11 11 11 13 11 6 0 4 4 3 4 4 3 10 11 11
6 5 8 7 6 5 7 10 9 5 5 4 5 6 5 5 9 9 12 14 13 12 11 13 14 13 14 14 12 10 10 6 4 7 8 4 3 4 3 4 9 9 9
6 6 7 6 6 4 7 9 8 5 5 7 6 6 6 7 7 11 11 12 10 9 8 8 13 11 13 11 7 9 10 6 8 5 4 4 2 2 2 2 7 8 8
5 6 7 7 6 4 8 5 7 7 7 7 6 6 7 7 8 12 12 13 13 10 11 13 13 15 13 12 11 10 7 9 7 4 3 4 3 3 3 2 3 8 8
5 6 8 6 7 5 6 9 7 4 6 6 5 6 9 7 10 11 12 12 14 12 13 10 9 10 10 10 10 5 7 9 7 4 4 4 3 4 2 2 4 4 4
Wind_Direction
191 223 235 183 192 185 186 202 196 205 205 229 244 216 199 209 226 219 217 281 192 193 202 192 187 190 200 200 191 184 179 167 168 165 165 163 159 156 160 167 159 156 170
176 191 220 203 197 180 182 178 203 184 196 215 246 206 207 222 206 232 221 197 181 194 204 205 205 200 201 205 195 186 177 168 170 170 170 164 161 164 172 171 168 160 155
173 170 186 196 214 178 173 146 218 203 222 226 235 252 216 236 232 215 219 178 196 206 205 215 210 208 202 205 193 187 178 175 173 167 163 162 165 171 171 166 152 149 138
168 183 198 229 177 164 167 191 215 230 223 225 242 243 239 237 256 235 218 204 192 203 218 209 208 213 205 209 194 188 179 175 169 165 165 167 171 171 161 158 142 132 128
172 169 193 206 162 163 193 207 225 196 200 230 226 241 235 230 233 249 212 212 206 200 195 219 205 210 208 208 200 189 186 176 165 162 167 166 169 169 165 146 136 135 131
175 173 182 175 171 182 217 222 217 211 190 208 226 236 242 235 232 239 237 243 210 197 198 192 198 208 206 211 204 191 189 173 163 161 162 167 172 167 152 142 134 131 131
153 169 164 173 175 187 216 209 195 208 227 185 108 314 276 239 230 238 230 261 247 229 184 199 180 180 197 204 203 191 190 175 164 164 165 169 163 149 140 129 129 127 131
155 163 166 187 192 214 209 206 188 181 203 177 157 132 297 320 267 229 231 243 254 262 226 187 164 176 176 185 195 185 184 174 168 167 165 158 148 143 137 132 133 133 121
157 169 186 186 201 189 196 205 196 182 181 207 196 147 148 228 142 72 211 212 217 202 253 211 195 191 172 173 185 180 180 177 172 168 166 149 144 140 136 133 131 130 145
177 182 184 178 188 183 204 219 199 175 155 188 207 239 224 135 144 18 272 221 220 231 231 201 157 200 178 166 177 180 183 177 174 166 158 150 144 144 134 132 134 139 165
166 184 195 177 186 189 216 216 181 191 184 170 167 150 249 252 190 146 221 251 303 232 220 182 154 153 170 163 166 174 169 161 170 157 153 148 147 142 138 136 142 159 155
218 221 187 166 180 184 205 201 204 186 195 208 194 184 176 200 208 136 165 169 162 258 114 106 131 141 103 136 165 165 158 162 158 151 149 146 143 138 136 140 157 162 153
220 222 187 175 184 194 191 167 166 193 203 191 197 217 193 206 157 163 131 147 137 178 98 64 142 140 116 106 145 154 157 145 140 138 136 139 134 129 134 155 156 162 161
196 181 168 162 185 187 167 164 178 193 179 183 185 196 178 160 121 120 161 142 106 95 91 137 42 122 105 128 121 149 141 138 128 121 120 114 124 129 156 162 156 159 150
178 157 159 156 185 186 165 162 150 175 139 132 122 95 79 34 73 120 195 173 149 139 93 60 109 96 96 138 124 101 118 117 124 122 121 126 132 148 152 145 140 147 153
155 151 148 170 179 140 153 144 140 148 133 128 118 105 67 78 332 206 215 204 116 134 114 70 57 102 135 109 123 114 121 121 124 125 126 127 128 133 131 129 122 123 116
141 151 161 183 186 149 152 146 173 150 134 152 116 132 87 140 283 87 121 102 89 106 119 79 73 102 112 118 112 118 124 127 123 120 125 130 136 138 130 127 124 113 113
159 169 187 188 194 153 156 168 190 150 147 155 137 131 152 150 103 107 90 88 107 120 133 130 128 112 111 123 117 120 118 117 126 129 128 130 134 127 131 122 119 127 119
161 169 169 123 125 132 117 112 134 148 139 152 162 155 145 112 105 105 106 102 106 107 124 131 128 109 119 126 117 112 111 104 112 111 99 103 107 108 114 114 120 119 125
132 151 144 151 164 126 123 130 120 109 121 132 109 74 144 116 117 111 100 109 116 123 136 132 138 131 130 131 125 125 116 115 111 89 70 85 90 97 105 114 123 129 125
108 141 144 74 70 67 84 111 101 91 90 89 89 83 75 95 140 146 145 141 132 127 133 135 131 130 128 131 128 122 114 112 91 98 101 84 90 77 83 89 114 122 114
105 112 83 95 80 71 32 89 112 106 100 108 105 94 93 89 137 106 107 117 126 133 134 130 130 128 110 120 123 122 121 129 122 276 107 85 99 91 97 86 111 118 132
121 118 106 96 90 74 29 79 92 93 96 100 109 118 96 84 92 104 93 91 78 82 107 130 127 129 126 131 131 131 135 121 119 153 124 102 73 86 64 107 127 135 134
126 97 99 106 101 80 47 46 86 90 70 61 76 97 105 99 109 115 112 111 106 97 100 124 129 133 130 135 120 131 133 112 107 128 111 103 127 93 100 109 143 139 135
109 106 115 110 105 73 49 40 106 86 80 66 59 63 86 95 124 124 115 114 108 93 66 72 94 108 115 114 126 129 132 130 134 153 186 116 159 122 160 188 184 171 165
118 114 119 122 128 120 68 84 101 100 92 87 72 66 72 113 119 122 126 128 124 128 121 115 102 89 112 129 136 126 149 143 139 128 210 105 128 147 176 188 174 180 190